Location: Krasnoyarskiy Pitomnik
(51.1333°N, 71.6167°E)
Time: 10:27:27
(UTC+00:00)

USA 229 DEB - Pass Details

Date: 22 October 2021
Orbit: 944 x 1268 km, 63.4° (Epoch: 25 November)

Event Time Altitude Azimuth Distance (km) Brightness Sun altitude
Exits shadow 22:59:21 49° 210° (SSW) 1,523 4.1 -27.3°
Drops below altitude 10° 23:05:44 10° 164° (SSE) 3,212 6.2 -26.3°
Sets 23:08:38 0° 160° (SSE) 4,197 6.9 -25.9°
